[[{"header":{"parameterUnit":"m.s-1","parameterCategory":1,"la1":30.2992,"la2":30.254,"lo1":-89.0895,"lo2":-89.0443,"dy":0.0025,"dx":0.0025,"nx":19,"ny":19,"refTime":"2026-03-14T09:00:00:Z","depth":0,"parameterNumber":2,"parameterNumberName":"U-component_of_WINDS"},"data":[0,0,0,-0.3299,-0.3301,-0.3391,-0.3391,-0.3505,-0.3506,0,0,0,0,0,0,0,0,0,0,0,-0.3269,-0.327,-0.3299,-0.3301,-0.3391,-0.3391,-0.3505,-0.3506,0,0,0,0,0,0,0,0,0,0,0,-0.3269,-0.327,-0.327,-0.3301,-0.3391,-0.3391,-0.3505,-0.3438,0,0,0,0,0,0,0,0,0,0,-0.335,-0.332,-0.3269,-0.327,-0.3302,-0.3391,-0.3391,-0.3434,-0.3442,-0.3463,0,-0.3479,0,-0.3494,-0.3513,-0.3514,0,0,0,-0.3304,-0.3313,-0.334,-0.327,-0.3302,-0.3391,-0.3351,-0.3439,-0.3447,-0.3472,-0.3481,-0.3485,-0.3496,-0.3514,-0.3515,-0.3623,-0.3624,0,0,-0.3299,-0.3284,-0.3334,-0.3345,-0.3329,-0.3348,-0.3354,-0.3444,-0.3452,-0.3481,-0.3488,-0.3498,-0.3515,-0.3516,-0.3623,-0.3623,0,0,0,-0.3282,-0.3281,-0.3305,-0.3341,-0.3357,-0.3351,-0.3357,-0.3448,-0.3457,-0.3489,-0.3499,-0.3515,-0.3517,-0.3622,-0.3623,-0.3629,0,0,0,-0.328,-0.3271,-0.3303,-0.3295,-0.3355,-0.3403,-0.336,-0.3451,-0.3462,-0.3499,-0.3515,-0.3518,-0.3622,-0.3623,-0.3627,-0.3634,0,0,0,-0.3264,-0.3269,-0.3281,-0.3294,-0.3332,-0.3402,-0.3417,-0.3454,-0.3468,-0.3514,-0.3518,-0.3622,-0.3623,-0.3627,-0.3633,-0.366,0,0,0,-0.3244,-0.3285,-0.3281,-0.333,-0.3331,-0.3404,-0.3416,-0.3471,-0.3511,-0.3516,-0.3622,-0.3623,-0.3626,-0.3632,-0.3659,-0.3681,-0.3688,0,0,-0.3288,-0.329,-0.332,-0.3319,-0.3388,-0.3391,-0.3462,-0.3513,-0.3531,-0.3592,-0.3595,-0.3628,-0.3633,-0.3659,-0.3732,-0.3738,0,0,0,-0.3329,-0.3351,-0.3372,-0.3408,-0.3447,-0.3482,-0.3522,-0.3541,-0.3594,-0.3559,-0.3644,-0.3648,-0.3664,-0.3676,-0.3681,-0.3697,-0.3627,-0.3627,-0.3627,-0.3371,-0.3391,-0.3443,-0.3474,-0.3509,-0.3551,-0.3582,-0.3615,-0.3625,-0.3645,-0.3664,-0.3705,-0.3718,-0.3722,-0.3738,-0.3676,-0.3676,-0.3676,-0.3676,-0.3438,-0.3472,-0.3484,-0.3539,-0.356,-0.3607,-0.365,-0.3655,-0.3704,-0.3692,-0.3708,-0.3696,-0.3727,-0.3743,-0.3677,-0.3676,-0.3676,-0.3676,-0.3676,-0.3469,-0.3489,-0.351,-0.3566,-0.3606,-0.3637,-0.3682,-0.37,-0.3717,-0.3733,-0.3756,-0.3756,-0.3759,-0.3742,-0.3742,-0.3742,-0.3742,-0.3742,-0.3742,-0.3494,-0.3517,-0.3553,-0.3597,-0.3623,-0.366,-0.3703,-0.373,-0.3765,-0.3774,-0.3775,-0.3784,-0.3726,-0.3712,-0.3745,-0.3744,-0.3744,-0.3744,-0.3744,-0.3557,-0.3546,-0.36,-0.3627,-0.3681,-0.3721,-0.3743,-0.3796,-0.3821,-0.3844,-0.385,-0.3803,-0.3807,-0.3803,-0.3792,-0.3844,-0.3844,-0.3844,-0.3844,-0.3585,-0.3588,-0.3649,-0.369,-0.3732,-0.3757,-0.3821,-0.3854,-0.3888,-0.3905,-0.39,-0.3885,-0.3881,-0.3888,-0.3882,-0.3872,-0.3943,-0.3943,-0.3943,-0.3626,-0.3634,-0.3684,-0.3715,-0.3759,-0.3797,-0.3858,-0.3906,-0.3942,-0.3948,-0.3919,-0.3915,-0.3892,-0.3884,-0.3891,-0.3882,-0.3864,0,0]},{"header":{"parameterUnit":"m.s-1","parameterCategory":1,"la1":30.2992,"la2":30.254,"lo1":-89.0895,"lo2":-89.0443,"dy":0.0025,"dx":0.0025,"nx":19,"ny":19,"refTime":"2026-03-14T09:00:00:Z","depth":0,"parameterNumber":3,"parameterNumberName":"V-component_of_WINDS"},"data":[0,0,0,0.9694,0.9696,0.9802,0.9802,0.9941,0.9942,0,0,0,0,0,0,0,0,0,0,0,0.9666,0.9667,0.9694,0.9696,0.9802,0.9802,0.994,0.9942,0,0,0,0,0,0,0,0,0,0,0,0.9666,0.9667,0.9668,0.9697,0.9802,0.9803,0.994,0.9859,0,0,0,0,0,0,0,0,0,0,0.9755,0.9734,0.9667,0.9668,0.9697,0.9802,0.9803,0.9855,0.9864,0.9894,0,0.9924,0,0.9935,0.9951,0.9952,0,0,0,0.9693,0.9727,0.9752,0.9669,0.9698,0.9802,0.9754,0.986,0.987,0.9906,0.9926,0.9931,0.9938,0.9952,0.9953,1.0142,1.0143,0,0,0.9687,0.9687,0.9745,0.9759,0.9745,0.975,0.9757,0.9866,0.9887,0.9927,0.9934,0.994,0.9953,0.9954,1.0142,1.0143,0,0,0,0.9673,0.9683,0.9705,0.9753,0.9772,0.9753,0.9761,0.9882,0.9889,0.9936,0.9942,0.9954,0.9956,1.014,1.0142,1.0192,0,0,0,0.9669,0.9674,0.9703,0.9704,0.977,0.9829,0.9775,0.9882,0.9894,0.9941,0.9954,0.9957,1.0139,1.0141,1.0189,1.0216,0,0,0,0.9658,0.9673,0.969,0.9704,0.9749,0.9827,0.9841,0.9884,0.9898,0.9952,0.9958,1.0139,1.0141,1.0185,1.0211,1.0265,0,0,0,0.9646,0.9734,0.9691,0.9791,0.9748,0.9858,0.984,0.9921,0.9974,0.9955,1.0139,1.0142,1.0184,1.0207,1.0262,1.0311,1.0332,0,0,0.9756,0.9747,0.9806,0.977,0.9887,0.9842,0.9966,1.0014,1.0019,1.01,1.0105,1.019,1.021,1.0265,1.0449,1.0465,0,0,0,0.984,0.9883,0.9914,0.9964,1.0003,1.0038,1.0067,1.0085,1.0154,1.0061,1.0225,1.0237,1.0269,1.0292,1.0306,1.0333,1.0153,1.0153,1.0152,0.9996,0.9998,1.0095,1.0109,1.0157,1.0186,1.0225,1.0253,1.024,1.0279,1.0303,1.0415,1.0442,1.0453,1.0481,1.0329,1.033,1.033,1.033,1.0158,1.0217,1.0198,1.0285,1.0285,1.0357,1.0387,1.0375,1.0441,1.0397,1.0425,1.0376,1.0471,1.0495,1.0334,1.0333,1.0333,1.0332,1.0332,1.026,1.0289,1.0309,1.038,1.0434,1.0444,1.0509,1.0507,1.0505,1.0533,1.0557,1.0556,1.0555,1.0545,1.0545,1.0545,1.0546,1.0546,1.0546,1.0358,1.0379,1.0434,1.0481,1.0512,1.0552,1.058,1.061,1.0642,1.0635,1.0635,1.0618,1.048,1.0445,1.0552,1.0551,1.055,1.055,1.0549,1.0521,1.0484,1.0569,1.06,1.0654,1.0707,1.0703,1.0763,1.0787,1.0818,1.0795,1.0693,1.0683,1.0672,1.0643,1.0795,1.0795,1.0795,1.0795,1.0607,1.0602,1.0687,1.0736,1.0784,1.0788,1.0882,1.0903,1.0919,1.0934,1.0911,1.0872,1.0861,1.0858,1.0843,1.0816,1.1008,1.1008,1.1008,1.0707,1.0706,1.0787,1.0803,1.0844,1.0879,1.0966,1.1022,1.1032,1.1017,1.0944,1.0936,1.0873,1.0853,1.0837,1.0813,1.0763,0,0]}]]